SCP
0 0 0 0 0 -0 0 0 0 0 0 0 0 0 0 0 0 0 0 0 0 0 0 -0 0 0 0 0 0 0 0 0 0 0 0 0 0 0 0 0 0 0 0 0 0 0 0
0 0 0 0 0 -0 0 0 0 0 0 0 0 0 0 -0 0 0 0 0 0 0 0 0 0 0 0 0 0 0 0 0 0 0 0 0 0 0 0 0 0 0 0 0 0 0 0
-0 0 -0 -0 0 0 0 0 0 0 0 0 0 0 0 0 0 0 0 0 0 0 0 0 0 0 0 0 0 0 0 0 0 0 0 0 0 0 0 0 0 0 0 0 0 0 0
-0 -0 -0 -0 -0 -0 0 0 0 0 0 0 0 0 0 0 0 0 0 0 0 0 0 0 0 0 0 0 0 0 0 0 0 0 0 0 0 0 0 0 0 0 0 0 0 0 0
-0 0 0 -0 0 0 0 0 0 0 0 0 0 0 0 0 0 0 0 0 0 0 0 0 0 0 0 0 0 0 0 0 0 0 0 0 0 0 0 0 0 0 0 0 0 0 0
0 -0 -0 0 0 0 0 0 0 0 0 0 0 0 0 0 0 0 0 0 0 0 0 0 0 0 0 0 0 0 0 0 0 0 0 0 0 0 0 0 0 0 0 0 0 0 0
0 -0 0 0 0 0 0 0 -0 0 0 0 0 0 0 0 0 0 0 0 0 0 0 0 0 0 0 0 0 0 0 0 0 0 0 0 0 0 0 0 0 0 0 0 0 0 0
-0 -0 -0 0 0 0 0 0 0 0 0 0 0 0 0 0 0 0 0 0 0 0 0 0 0 0 0 0 0 0 0 0 0 0 0 0 0 0 0 0 0 0 0 0 0 0 0
0 -0 -0 -0 0 0 0 0 0 0 0 0 0 0 0 0 0 0 0 0 0 0 0 0 0 0 0 0 0 0 0 0 0 0 0 0 0 0 0 0 0 0 0 0 0 0 0
0 0 0 -0 -0 0 0 0 0 0 0 0 0 0 0 0 0 0 0 0 0 0 0 0 0 0 0 0 0 0 0 0 0 0 0 0 0 0 0 0 0 0 0 0 0 0 0
0 0 -0 -0 0 0 0 0 0 0 0 0 0 0 0 0 0 0 0 0 0 0 0 0 0 0 0 0 0 0 0 0 0 0 0 0 0 0 0 0 0 0 0 0 0 0 0
0 0 0 -0 -0 0 -0 0 0 0 0 0 0 0 0 0 0 0 0 0 0 0 0 0 0 0 0 0 0 0 0 0 0 0 0 0 0 0 0 0 0 0 0 0 0 0 0
0 0 0 -0 0 -0 0 0 0 0 0 0 0 0 0 0 0 0 0 0 0 0 0 0 0 0 0 0 0 0 0 0 0 0 0 0 0 0 0 0 0 0 0 0 0 0 0
0 0 0 -0 -0 -0 -0 0 0 0 0 0 0 0 0 0 0 0 0 0 0 0 0 0 0 0 0 0 0 0 0 0 0 0 0 0 0 0 0 0 0 0 0 0 0 0 0
0 0 0 0 -0 0 0 0 0 0 0 0 0 0 0 0 0 0 0 0 0 0 0 0 0 0 0 0 0 0 0 0 0 0 0 0 0 0 0 0 0 0 0 0 0 0 0
0 0 0 -0 -0 -0 -0 -0 0 0 0 0 0 0 0 0 0 0 0 0 0 0 0 0 0 0 0 0 0 0 0 0 0 0 0 0 0 0 0 0 0 0 0 0 0 0 0
-0 0 -0 -0 -0 -0 -0 -0 -0 -0 0 0 0 0 0 0 0 0 0 0 0 0 0 0 0 0 0 0 0 0 0 0 0 0 0 0 0 0 0 0 0 0 0 0 0 0 0
-0 -0 0 0 -0 -0 -0 -0 -0 0 0 0 0 0 0 0 0 0 0 0 0 0 0 0 0 0 0 0 0 0 0 0 0 0 0 0 0 0 0 0 0 0 0 0 0 0 0
0 0 -0 -0 0 -0 -0 -0 0 0 0 0 0 0 0 0 0 0 0 0 0 0 0 -0 0 -0 -0 -0 0 0 0 0 0 0 0 0 0 0 0 0 0 0 0 0 0 0 0
0 0 0 0 0 0 0 0 0 0 0 0 0 0 0 0 0 0 0 0 0 0 0 0 0 0 -0 -0 -0 0 0 0 0 0 0 0 0 0 0 0 0 0 0 0 0 0 0
0 0 0 0 0 0 0 0 0 0 0 0 0 0 0 0 0 0 0 -0 0 0 0 0 0 0 0 -0 -0 -0 -0 -0 0 0 0 0 0 0 0 0 0 0 0 0 0 0 0
0 0 0 -0 -0 0 0 0 0 0 0 0 0 0 0 0 0 0 0 0 0 0 0 0 0 0 0 0 0 -0 -0 -0 -0 0 0 -0 0 0 0 0 0 0 0 0 0 0 0
-0 0 0 0 0 0 -0 0 0 0 0 0 0 0 -0 0 -0 0 0 0 -0 -0 0 0 0 0 0 0 0 0 0 0 0 0 0 -0 0 0 0 0 0 0 0 0 0 0 0
-0 -0 -0 -0 0 -0 -0 -0 -0 -0 -0 -0 0 0 0 -0 -0 -0 0 -0 -0 -0 -0 0 0 0 0 0 0 0 0 0 0 0 0 0 0 0 0 0 0 0 0 0 0 0 0
-0 -0 -0 -0 -0 0 -0 -0 -0 -0 -0 -0 0 0 0 -0 0 -0 -0 0 -0 0 -0 -0 -0 0 -0 0 0 0 0 0 0 0 0 0 0 0 0 0 0 0 0 0 0 0 0
-0 -0 -0 -0 -0 -0 -0 -0 -0 -0 -0 0 -0 0 0 -0 0 -0 0 -0 -0 0 0 0 0 0 0 0 -0 0 0 0 0 0 0 0 0 0 0 0 0 0 0 0 0 0 0
-0 -0 -0 -0 -0 -0 -0 -0 -0 -0 -0 -0 0 0 -0 -0 0 -0 -0 -0 0 0 -0 0 0 0 -0 0 -0 -0 0 0 0 0 0 0 0 0 0 0 0 0 0 0 0 0 0
-0 -0 -0 -0 -0 -0 -0 -0 -0 -0 -0 -0 -0 0 -0 0 0 -0 0 0 0 -0 -0 0 0 0 0 0 0 0 -0 -0 0 0 0 0 0 0 0 0 0 0 0 0 0 0 0
-0 -0 -0 -0 -0 -0 -0 -0 -0 -0 -0 -0 -0 -0 -0 -0 0 -0 0 -0 -0 -0 -0 0 0 0 0 0 0 0 0 0 -0 0 0 0 0 0 0 0 0 0 0 0 0 0 0
Wind_Speed_500mb
28 29 31 33 29 33 22 28 39 32 29 26 29 30 26 34 30 32 28 25 23 23 22 22 24 31 28 12 23 17 10 18 29 33 30 15 3 7 8 9 15 5 2 9 12 8 10
33 34 34 35 33 29 29 27 30 32 29 31 26 31 29 24 36 31 26 23 26 24 23 19 20 21 33 16 17 29 11 13 18 25 29 28 6 9 17 16 10 2 5 6 11 11 9
34 40 40 34 30 29 27 27 25 31 28 26 28 26 34 26 31 32 27 23 30 29 28 23 23 29 32 41 14 29 26 14 12 17 22 23 22 17 18 8 9 2 4 3 9 4 4
38 39 29 25 37 35 31 30 26 29 30 27 24 27 32 28 25 34 28 21 27 29 33 28 24 22 13 24 21 20 26 22 11 14 17 20 18 16 11 17 9 9 10 3 4 2 2
35 37 41 42 39 35 31 33 31 25 35 26 23 25 30 26 22 31 29 22 25 23 30 30 25 16 10 16 30 27 27 24 18 19 21 25 21 10 14 12 6 12 6 4 8 3 3
40 42 44 36 35 34 34 35 25 26 30 25 21 22 29 24 23 28 25 22 26 19 24 35 20 12 20 17 24 39 28 24 18 22 26 17 8 6 6 6 13 11 9 7 10 5 6
41 43 39 35 32 30 25 30 28 23 24 20 17 19 28 22 25 28 25 26 16 11 24 10 27 7 18 21 24 36 32 26 29 20 9 4 8 13 15 12 5 10 7 9 5 5 2
46 42 41 37 33 28 28 25 24 23 20 15 11 21 23 20 27 27 25 17 18 15 7 12 16 9 18 26 15 35 36 20 16 9 12 7 12 11 13 14 9 10 10 6 1 6 3
38 42 41 39 33 31 27 25 23 21 19 15 16 23 18 17 27 26 25 19 29 29 4 6 9 17 23 20 12 41 40 23 9 9 6 10 5 15 11 9 12 3 11 9 5 2 6
53 46 45 42 39 34 28 26 22 18 19 18 19 24 21 18 19 23 18 21 7 25 4 6 20 14 18 14 9 40 36 18 6 10 9 3 1 11 8 9 11 11 13 12 11 7 7
52 49 48 52 50 41 34 26 21 16 19 21 21 28 22 18 13 21 17 9 12 6 6 16 12 10 21 9 30 15 29 7 15 12 13 8 14 12 6 9 11 6 10 14 6 9 4
59 59 53 51 47 45 40 29 21 15 20 23 27 31 25 20 15 20 16 15 11 3 6 8 10 14 15 4 5 18 14 9 11 8 7 6 5 9 12 5 10 17 13 14 10 6 4
58 57 52 46 46 42 37 34 23 18 23 26 35 30 24 17 12 25 16 14 4 5 4 5 3 14 15 11 7 6 16 11 11 11 8 3 5 4 10 13 7 5 12 5 5 1 11
60 55 42 29 35 41 38 39 28 25 30 40 40 37 30 23 26 27 22 7 8 2 5 5 8 16 10 10 4 5 17 14 8 6 7 11 4 14 8 11 14 9 10 10 13 9 5
61 56 35 17 32 38 44 43 34 32 42 49 46 38 32 25 18 17 11 8 7 2 5 6 5 2 3 7 6 7 16 5 15 10 7 8 5 1 5 8 17 11 11 9 11 5 4
61 60 49 43 49 47 51 45 40 42 48 54 52 43 33 28 21 18 9 9 5 4 3 5 10 9 14 13 7 10 15 6 2 10 4 7 5 1 6 7 5 12 17 5 5 4 7
67 63 59 57 56 56 52 46 45 53 55 53 56 16 22 18 14 13 8 6 6 9 8 10 2 7 11 7 8 7 4 13 20 15 4 2 1 3 7 14 16 7 6 5 9 9 10
69 66 64 61 61 57 48 47 56 63 50 42 18 7 22 15 12 8 6 6 3 4 5 4 5 7 4 4 4 4 6 4 10 15 2 4 3 8 12 4 4 3 11 10 8 8 5
60 60 62 61 56 51 54 52 51 34 45 23 14 12 12 2 7 6 5 5 6 4 7 4 5 6 3 5 8 4 6 9 16 11 7 13 7 7 1 4 5 9 7 12 9 5 13
66 66 65 70 69 63 60 51 41 28 27 19 11 5 9 14 12 12 8 3 5 6 6 8 6 5 3 5 5 4 2 3 4 10 19 6 6 5 10 5 6 9 11 19 19 9 28
60 56 47 51 53 54 49 42 32 19 14 5 7 4 5 0 6 7 5 4 5 4 6 8 6 5 6 5 3 3 1 3 1 3 11 11 5 8 9 7 7 7 5 14 28 38 22
55 51 42 38 50 44 33 25 18 17 7 5 7 12 15 10 8 7 9 4 5 4 3 5 8 9 4 5 5 6 4 4 4 2 4 3 5 3 5 8 5 3 17 16 18 29 24
46 49 49 47 42 37 26 20 19 21 15 10 20 24 9 5 3 7 3 6 4 4 10 6 7 4 1 5 11 14 13 11 6 6 2 4 1 4 8 6 5 9 13 20 17 21 11
25 27 25 25 25 23 22 23 20 19 24 20 24 11 9 3 4 3 2 5 6 4 7 2 4 6 5 5 9 6 4 13 20 19 17 3 3 4 5 5 2 14 12 16 24 29 29
13 15 15 15 17 21 23 25 29 28 22 12 15 9 7 7 5 3 8 8 9 3 4 2 3 3 6 1 4 10 8 9 7 4 10 15 2 3 6 5 10 21 12 14 15 18 27
10 11 11 12 14 18 21 24 27 28 28 23 27 19 11 23 9 10 8 5 5 1 6 5 7 12 10 6 7 6 3 7 8 12 4 13 8 6 2 7 11 16 9 10 7 12 25
4 5 7 8 9 11 13 15 16 19 20 20 26 20 12 11 17 17 6 7 10 6 4 1 3 5 6 3 5 5 5 4 1 3 6 6 6 19 8 7 15 19 12 4 10 11 28
11 7 4 4 4 4 4 3 7 10 10 12 14 15 12 6 19 16 11 11 14 9 7 7 6 2 5 7 6 5 4 6 1 6 10 13 11 7 6 6 16 7 8 13 6 56 74
17 14 10 6 4 3 5 8 12 14 14 15 11 7 5 2 6 11 13 17 17 10 12 14 6 3 7 7 2 5 2 3 5 5 3 6 12 7 16 13 10 11 24 47 56 58 74
Wind_Direction_500mb
313 315 305 294 297 306 293 297 298 282 273 274 259 255 265 235 238 227 235 226 246 199 217 213 229 224 239 220 226 243 249 219 226 212 249 259 134 87 85 338 322 73 17 65 59 98 170
309 304 301 304 289 287 279 276 287 300 271 263 262 251 250 246 231 231 231 218 224 204 210 192 194 200 191 229 231 217 240 233 219 209 203 230 180 164 138 177 277 5 98 106 73 80 101
296 301 301 296 298 294 269 279 285 281 289 265 258 254 240 246 233 228 226 218 218 214 200 194 186 190 199 222 224 206 214 213 209 201 199 202 200 185 158 155 170 104 101 46 41 57 95
302 296 298 297 289 289 283 270 272 283 287 288 275 248 236 234 240 219 219 222 215 218 194 190 190 188 222 234 214 207 197 199 175 176 179 174 175 167 140 135 38 61 50 79 306 165 28
293 291 285 284 289 288 277 269 261 273 285 283 274 252 226 224 227 214 211 208 213 220 203 184 186 176 227 227 212 204 197 195 167 137 149 156 154 134 132 116 58 24 158 188 316 296 137
293 295 295 290 290 290 270 276 265 264 288 283 273 244 210 212 211 209 206 207 206 200 194 171 167 178 225 211 196 199 187 181 155 145 127 140 116 98 56 126 195 172 172 219 208 348 45
299 300 295 293 294 296 283 262 277 274 275 278 274 212 200 206 202 204 201 179 164 196 165 168 194 167 150 163 167 183 178 162 147 152 137 114 139 191 182 190 131 123 122 168 240 354 169
288 296 295 290 288 288 272 279 272 263 270 254 239 187 192 199 196 201 204 206 154 140 156 172 188 149 154 148 125 170 166 155 155 140 122 93 225 187 158 144 139 140 140 190 27 14 99
299 286 289 283 276 276 275 271 276 264 252 226 206 181 190 194 191 204 206 207 178 196 47 350 207 149 159 156 134 166 171 156 109 116 178 168 193 169 139 144 143 102 160 168 162 67 59
306 297 282 273 271 265 262 264 268 261 226 212 202 185 187 189 186 199 202 215 197 173 87 219 182 206 156 160 75 166 161 151 151 149 115 225 140 144 119 175 137 192 181 148 138 105 237
310 300 288 270 261 255 250 253 249 245 214 197 194 186 178 169 171 165 180 168 185 173 179 161 151 175 171 134 141 172 172 120 150 156 131 219 166 152 146 188 158 220 149 149 129 109 91
315 302 287 273 260 246 237 235 230 218 193 182 178 179 173 166 162 158 162 97 140 112 217 162 134 152 132 215 121 132 155 123 122 99 55 147 169 154 159 125 140 142 93 52 53 76 313
324 314 296 267 244 229 218 212 202 188 176 166 163 153 158 163 148 137 138 148 26 121 307 39 59 144 150 155 102 114 158 165 149 135 169 127 192 164 135 93 46 103 104 40 16 6 231
341 332 311 266 223 200 195 187 177 162 160 155 145 147 131 112 128 129 137 80 87 355 350 345 324 168 168 138 107 116 141 182 246 100 126 157 257 164 187 165 168 182 155 161 193 197 219
9 7 16 135 163 166 169 164 156 150 153 148 142 140 122 109 112 133 170 73 145 239 315 336 73 330 102 85 95 104 181 212 184 186 157 145 253 73 169 162 148 193 207 154 106 44 49
28 39 63 100 128 138 144 143 144 146 150 140 139 127 117 115 122 151 77 121 87 20 30 331 88 29 37 16 51 156 150 1 351 176 192 204 148 55 174 126 26 160 152 96 13 139 258
48 59 73 92 109 123 127 133 138 140 143 146 130 90 122 115 106 62 100 93 83 37 31 33 113 105 91 65 350 24 80 43 2 344 18 225 96 7 135 214 168 143 173 143 131 157 186
58 67 80 94 108 117 120 129 136 139 143 143 84 75 119 133 51 55 84 129 92 51 44 84 98 89 125 137 62 55 130 111 37 327 329 204 157 181 192 11 5 313 192 162 145 223 221
62 72 84 95 104 107 112 120 134 150 148 100 74 83 85 20 109 82 42 39 58 56 37 36 67 53 7 132 115 151 242 169 117 72 32 348 205 146 23 356 7 219 171 195 116 115 202
69 73 88 101 108 113 115 109 109 107 113 100 103 74 31 59 75 119 131 334 80 50 80 55 112 94 87 37 62 158 224 105 199 126 134 9 285 243 194 135 136 188 197 196 199 202 245
67 69 80 98 108 111 109 101 96 98 137 47 83 85 111 5 2 82 67 144 91 77 48 44 39 88 128 104 76 171 166 84 112 72 213 135 291 301 335 345 350 350 278 212 211 229 226
77 83 80 81 87 94 100 70 67 63 68 57 100 132 84 71 35 33 4 330 117 303 95 19 74 34 54 115 148 208 80 27 60 340 285 34 194 126 338 346 117 315 272 252 240 252 250
81 80 78 79 76 75 70 42 37 34 35 73 103 109 113 53 17 79 264 201 166 111 14 61 122 103 2 319 320 289 248 252 228 156 307 137 188 90 261 302 117 333 226 216 249 240 224
81 79 76 70 63 60 60 51 47 52 60 105 103 95 102 122 70 157 125 112 121 81 140 46 124 136 22 342 326 274 253 257 239 222 198 146 101 102 250 23 178 246 220 196 217 241 235
104 96 91 83 70 63 64 69 68 74 77 80 81 85 98 116 169 165 137 112 124 113 102 160 86 142 331 212 78 17 343 1 317 283 204 184 136 330 139 216 296 306 259 183 166 256 235
112 106 95 81 72 74 81 79 73 70 71 70 74 80 90 122 237 132 125 104 147 131 20 146 98 53 125 79 65 121 222 223 342 357 359 176 191 139 357 158 203 235 32 353 74 272 312
158 117 96 86 80 83 86 77 71 68 65 58 63 62 82 97 158 149 140 159 138 122 141 291 91 94 130 94 91 140 261 176 2 134 160 160 193 217 206 227 271 262 260 256 154 254 336
210 194 159 114 102 101 105 75 35 24 20 26 41 49 63 100 171 201 195 164 151 172 136 149 64 24 52 63 109 217 128 232 79 215 186 180 169 200 161 199 265 188 179 196 225 324 308
207 207 210 212 228 281 310 318 323 321 322 319 316 326 5 86 156 192 220 211 219 208 170 159 147 177 177 85 59 103 266 17 166 263 184 261 197 191 188 218 235 214 244 277 294 301 309
Wind_Speed_850mb
28 29 31 33 29 33 22 28 39 32 29 26 29 30 26 34 30 32 28 25 23 23 22 22 24 31 28 12 23 17 10 18 29 33 30 15 3 7 8 9 15 5 2 9 12 8 10
33 34 34 35 33 29 29 27 30 32 29 31 26 31 29 24 36 31 26 23 26 24 23 19 20 21 33 16 17 29 11 13 18 25 29 28 6 9 17 16 10 2 5 6 11 11 9
34 40 40 34 30 29 27 27 25 31 28 26 28 26 34 26 31 32 27 23 30 29 28 23 23 29 32 41 14 29 26 14 12 17 22 23 22 17 18 8 9 2 4 3 9 4 4
38 39 29 25 37 35 31 30 26 29 30 27 24 27 32 28 25 34 28 21 27 29 33 28 24 22 13 24 21 20 26 22 11 14 17 20 18 16 11 17 9 9 10 3 4 2 2
35 37 41 42 39 35 31 33 31 25 35 26 23 25 30 26 22 31 29 22 25 23 30 30 25 16 10 16 30 27 27 24 18 19 21 25 21 10 14 12 6 12 6 4 8 3 3
40 42 44 36 35 34 34 35 25 26 30 25 21 22 29 24 23 28 25 22 26 19 24 35 20 12 20 17 24 39 28 24 18 22 26 17 8 6 6 6 13 11 9 7 10 5 6
41 43 39 35 32 30 25 30 28 23 24 20 17 19 28 22 25 28 25 26 16 11 24 10 27 7 18 21 24 36 32 26 29 20 9 4 8 13 15 12 5 10 7 9 5 5 2
46 42 41 37 33 28 28 25 24 23 20 15 11 21 23 20 27 27 25 17 18 15 7 12 16 9 18 26 15 35 36 20 16 9 12 7 12 11 13 14 9 10 10 6 1 6 3
38 42 41 39 33 31 27 25 23 21 19 15 16 23 18 17 27 26 25 19 29 29 4 6 9 17 23 20 12 41 40 23 9 9 6 10 5 15 11 9 12 3 11 9 5 2 6
53 46 45 42 39 34 28 26 22 18 19 18 19 24 21 18 19 23 18 21 7 25 4 6 20 14 18 14 9 40 36 18 6 10 9 3 1 11 8 9 11 11 13 12 11 7 7
52 49 48 52 50 41 34 26 21 16 19 21 21 28 22 18 13 21 17 9 12 6 6 16 12 10 21 9 30 15 29 7 15 12 13 8 14 12 6 9 11 6 10 14 6 9 4
59 59 53 51 47 45 40 29 21 15 20 23 27 31 25 20 15 20 16 15 11 3 6 8 10 14 15 4 5 18 14 9 11 8 7 6 5 9 12 5 10 17 13 14 10 6 4
58 57 52 46 46 42 37 34 23 18 23 26 35 30 24 17 12 25 16 14 4 5 4 5 3 14 15 11 7 6 16 11 11 11 8 3 5 4 10 13 7 5 12 5 5 1 11
60 55 42 29 35 41 38 39 28 25 30 40 40 37 30 23 26 27 22 7 8 2 5 5 8 16 10 10 4 5 17 14 8 6 7 11 4 14 8 11 14 9 10 10 13 9 5
61 56 35 17 32 38 44 43 34 32 42 49 46 38 32 25 18 17 11 8 7 2 5 6 5 2 3 7 6 7 16 5 15 10 7 8 5 1 5 8 17 11 11 9 11 5 4
61 60 49 43 49 47 51 45 40 42 48 54 52 43 33 28 21 18 9 9 5 4 3 5 10 9 14 13 7 10 15 6 2 10 4 7 5 1 6 7 5 12 17 5 5 4 7
67 63 59 57 56 56 52 46 45 53 55 53 56 16 22 18 14 13 8 6 6 9 8 10 2 7 11 7 8 7 4 13 20 15 4 2 1 3 7 14 16 7 6 5 9 9 10
69 66 64 61 61 57 48 47 56 63 50 42 18 7 22 15 12 8 6 6 3 4 5 4 5 7 4 4 4 4 6 4 10 15 2 4 3 8 12 4 4 3 11 10 8 8 5
60 60 62 61 56 51 54 52 51 34 45 23 14 12 12 2 7 6 5 5 6 4 7 4 5 6 3 5 8 4 6 9 16 11 7 13 7 7 1 4 5 9 7 12 9 5 13
66 66 65 70 69 63 60 51 41 28 27 19 11 5 9 14 12 12 8 3 5 6 6 8 6 5 3 5 5 4 2 3 4 10 19 6 6 5 10 5 6 9 11 19 19 9 28
60 56 47 51 53 54 49 42 32 19 14 5 7 4 5 0 6 7 5 4 5 4 6 8 6 5 6 5 3 3 1 3 1 3 11 11 5 8 9 7 7 7 5 14 28 38 22
55 51 42 38 50 44 33 25 18 17 7 5 7 12 15 10 8 7 9 4 5 4 3 5 8 9 4 5 5 6 4 4 4 2 4 3 5 3 5 8 5 3 17 16 18 29 24
46 49 49 47 42 37 26 20 19 21 15 10 20 24 9 5 3 7 3 6 4 4 10 6 7 4 1 5 11 14 13 11 6 6 2 4 1 4 8 6 5 9 13 20 17 21 11
25 27 25 25 25 23 22 23 20 19 24 20 24 11 9 3 4 3 2 5 6 4 7 2 4 6 5 5 9 6 4 13 20 19 17 3 3 4 5 5 2 14 12 16 24 29 29
13 15 15 15 17 21 23 25 29 28 22 12 15 9 7 7 5 3 8 8 9 3 4 2 3 3 6 1 4 10 8 9 7 4 10 15 2 3 6 5 10 21 12 14 15 18 27
10 11 11 12 14 18 21 24 27 28 28 23 27 19 11 23 9 10 8 5 5 1 6 5 7 12 10 6 7 6 3 7 8 12 4 13 8 6 2 7 11 16 9 10 7 12 25
4 5 7 8 9 11 13 15 16 19 20 20 26 20 12 11 17 17 6 7 10 6 4 1 3 5 6 3 5 5 5 4 1 3 6 6 6 19 8 7 15 19 12 4 10 11 28
11 7 4 4 4 4 4 3 7 10 10 12 14 15 12 6 19 16 11 11 14 9 7 7 6 2 5 7 6 5 4 6 1 6 10 13 11 7 6 6 16 7 8 13 6 56 74
17 14 10 6 4 3 5 8 12 14 14 15 11 7 5 2 6 11 13 17 17 10 12 14 6 3 7 7 2 5 2 3 5 5 3 6 12 7 16 13 10 11 24 47 56 58 74
Wind_Direction_850mb
313 315 305 294 297 306 293 297 298 282 273 274 259 255 265 235 238 227 235 226 246 199 217 213 229 224 239 220 226 243 249 219 226 212 249 259 134 87 85 338 322 73 17 65 59 98 170
309 304 301 304 289 287 279 276 287 300 271 263 262 251 250 246 231 231 231 218 224 204 210 192 194 200 191 229 231 217 240 233 219 209 203 230 180 164 138 177 277 5 98 106 73 80 101
296 301 301 296 298 294 269 279 285 281 289 265 258 254 240 246 233 228 226 218 218 214 200 194 186 190 199 222 224 206 214 213 209 201 199 202 200 185 158 155 170 104 101 46 41 57 95
302 296 298 297 289 289 283 270 272 283 287 288 275 248 236 234 240 219 219 222 215 218 194 190 190 188 222 234 214 207 197 199 175 176 179 174 175 167 140 135 38 61 50 79 306 165 28
293 291 285 284 289 288 277 269 261 273 285 283 274 252 226 224 227 214 211 208 213 220 203 184 186 176 227 227 212 204 197 195 167 137 149 156 154 134 132 116 58 24 158 188 316 296 137
293 295 295 290 290 290 270 276 265 264 288 283 273 244 210 212 211 209 206 207 206 200 194 171 167 178 225 211 196 199 187 181 155 145 127 140 116 98 56 126 195 172 172 219 208 348 45
299 300 295 293 294 296 283 262 277 274 275 278 274 212 200 206 202 204 201 179 164 196 165 168 194 167 150 163 167 183 178 162 147 152 137 114 139 191 182 190 131 123 122 168 240 354 169
288 296 295 290 288 288 272 279 272 263 270 254 239 187 192 199 196 201 204 206 154 140 156 172 188 149 154 148 125 170 166 155 155 140 122 93 225 187 158 144 139 140 140 190 27 14 99
299 286 289 283 276 276 275 271 276 264 252 226 206 181 190 194 191 204 206 207 178 196 47 350 207 149 159 156 134 166 171 156 109 116 178 168 193 169 139 144 143 102 160 168 162 67 59
306 297 282 273 271 265 262 264 268 261 226 212 202 185 187 189 186 199 202 215 197 173 87 219 182 206 156 160 75 166 161 151 151 149 115 225 140 144 119 175 137 192 181 148 138 105 237
310 300 288 270 261 255 250 253 249 245 214 197 194 186 178 169 171 165 180 168 185 173 179 161 151 175 171 134 141 172 172 120 150 156 131 219 166 152 146 188 158 220 149 149 129 109 91
315 302 287 273 260 246 237 235 230 218 193 182 178 179 173 166 162 158 162 97 140 112 217 162 134 152 132 215 121 132 155 123 122 99 55 147 169 154 159 125 140 142 93 52 53 76 313
324 314 296 267 244 229 218 212 202 188 176 166 163 153 158 163 148 137 138 148 26 121 307 39 59 144 150 155 102 114 158 165 149 135 169 127 192 164 135 93 46 103 104 40 16 6 231
341 332 311 266 223 200 195 187 177 162 160 155 145 147 131 112 128 129 137 80 87 355 350 345 324 168 168 138 107 116 141 182 246 100 126 157 257 164 187 165 168 182 155 161 193 197 219
9 7 16 135 163 166 169 164 156 150 153 148 142 140 122 109 112 133 170 73 145 239 315 336 73 330 102 85 95 104 181 212 184 186 157 145 253 73 169 162 148 193 207 154 106 44 49
28 39 63 100 128 138 144 143 144 146 150 140 139 127 117 115 122 151 77 121 87 20 30 331 88 29 37 16 51 156 150 1 351 176 192 204 148 55 174 126 26 160 152 96 13 139 258
48 59 73 92 109 123 127 133 138 140 143 146 130 90 122 115 106 62 100 93 83 37 31 33 113 105 91 65 350 24 80 43 2 344 18 225 96 7 135 214 168 143 173 143 131 157 186
58 67 80 94 108 117 120 129 136 139 143 143 84 75 119 133 51 55 84 129 92 51 44 84 98 89 125 137 62 55 130 111 37 327 329 204 157 181 192 11 5 313 192 162 145 223 221
62 72 84 95 104 107 112 120 134 150 148 100 74 83 85 20 109 82 42 39 58 56 37 36 67 53 7 132 115 151 242 169 117 72 32 348 205 146 23 356 7 219 171 195 116 115 202
69 73 88 101 108 113 115 109 109 107 113 100 103 74 31 59 75 119 131 334 80 50 80 55 112 94 87 37 62 158 224 105 199 126 134 9 285 243 194 135 136 188 197 196 199 202 245
67 69 80 98 108 111 109 101 96 98 137 47 83 85 111 5 2 82 67 144 91 77 48 44 39 88 128 104 76 171 166 84 112 72 213 135 291 301 335 345 350 350 278 212 211 229 226
77 83 80 81 87 94 100 70 67 63 68 57 100 132 84 71 35 33 4 330 117 303 95 19 74 34 54 115 148 208 80 27 60 340 285 34 194 126 338 346 117 315 272 252 240 252 250
81 80 78 79 76 75 70 42 37 34 35 73 103 109 113 53 17 79 264 201 166 111 14 61 122 103 2 319 320 289 248 252 228 156 307 137 188 90 261 302 117 333 226 216 249 240 224
81 79 76 70 63 60 60 51 47 52 60 105 103 95 102 122 70 157 125 112 121 81 140 46 124 136 22 342 326 274 253 257 239 222 198 146 101 102 250 23 178 246 220 196 217 241 235
104 96 91 83 70 63 64 69 68 74 77 80 81 85 98 116 169 165 137 112 124 113 102 160 86 142 331 212 78 17 343 1 317 283 204 184 136 330 139 216 296 306 259 183 166 256 235
112 106 95 81 72 74 81 79 73 70 71 70 74 80 90 122 237 132 125 104 147 131 20 146 98 53 125 79 65 121 222 223 342 357 359 176 191 139 357 158 203 235 32 353 74 272 312
158 117 96 86 80 83 86 77 71 68 65 58 63 62 82 97 158 149 140 159 138 122 141 291 91 94 130 94 91 140 261 176 2 134 160 160 193 217 206 227 271 262 260 256 154 254 336
210 194 159 114 102 101 105 75 35 24 20 26 41 49 63 100 171 201 195 164 151 172 136 149 64 24 52 63 109 217 128 232 79 215 186 180 169 200 161 199 265 188 179 196 225 324 308
207 207 210 212 228 281 310 318 323 321 322 319 316 326 5 86 156 192 220 211 219 208 170 159 147 177 177 85 59 103 266 17 166 263 184 261 197 191 188 218 235 214 244 277 294 301 309